Back to catalog

SL-8 R/B

AlivePO
NORAD 17240·ROCKET BODY·🇷🇺 Russia

Launched Dec 17, 1986 from Plesetsk Cosmodrome

Loading…

Next Passes (next 24 hours)

TLE

FreshSource: Space-Track

Epoch: Sep 14, 2026, 10:14 UTC

1 17240U 86100B   26257.42679818 -.00000046  00000-0 -64375-4 0  9997
2 17240  82.9277  66.9615 0029783 173.1298 213.7415 13.74297636633603

Track SL-8 R/B in real time with AllMySat

Download on the App Store